Location: Winthrop
(48.4780°N, 120.1850°W)
Time: 00:19:06
(UTC-08:00)

BlueWalker 3 - Visible Passes

Search period start: 06 December 2022 00:00
Search period end: 16 December 2022 00:00
Orbit: 501 x 518 km, 53.2° (Epoch: 05 December)

Date Brightness Start Highest point End Pass type
(mag) Time Alt. Az. Time Alt. Az. Time Alt. Az.
06 Dec 1.9 17:55:53 10° WNW 17:59:46 64° NNE 18:00:42 46° E visible
06 Dec 5.0 19:34:45 10° WNW 19:35:32 15° W 19:35:32 15° W visible
07 Dec 1.9 17:37:28 10° WNW 17:41:22 67° NNE 17:43:20 27° E visible
07 Dec 4.4 19:16:23 10° WNW 19:18:11 22° W 19:18:11 22° W visible
08 Dec 1.9 17:19:04 10° WNW 17:22:59 69° NNE 17:26:07 15° ESE visible
08 Dec 3.8 18:58:00 10° WNW 19:00:59 29° SW 19:00:59 29° SW visible
09 Dec 1.9 17:00:39 10° WNW 17:04:34 72° NNE 17:08:27 10° ESE visible
09 Dec 3.7 18:39:37 10° WNW 18:42:59 28° SW 18:43:59 25° SSW visible
10 Dec 1.9 16:42:14 10° WNW 16:46:09 74° NNE 16:50:02 10° ESE visible
10 Dec 3.9 18:21:14 10° W 18:24:33 27° SW 18:27:15 13° S visible
11 Dec 4.1 18:02:51 10° W 18:06:07 25° SW 18:09:21 10° SSE visible
12 Dec 4.3 17:44:28 10° W 17:47:39 24° SW 17:50:49 10° SSE visible
13 Dec 4.5 17:26:05 10° W 17:29:12 23° SW 17:32:17 10° S visible
14 Dec 4.7 17:07:42 10° W 17:10:44 22° SW 17:13:45 10° S visible
15 Dec 5.0 16:49:19 10° W 16:52:15 20° SW 16:55:11 10° S visible
